Jean Mbarga

Olheiro-Chefe - Canon Yaounde
3 Abr 2027
Sábado
Processo

Personalidade

Adaptabilidade (16) Ambição (7) Controvérsia (7) Lealdade (17) Pressão (14) Profissionalismo (19) Espírito Esportivo (10) Temperamento (14)

Perfil

Estilo de Treinamento Democrático
Licença Nacional A
Determinação 6
Gestão de Pessoas 7
Motivação 2
Disciplina 5
Satisfação no Trabalho
63%
Fadiga
0%
Função Olheiro-Chefe
Salário 54.8K p/s
Contrato 14.03.2030

Desempenho

Comportamento Bom
Eficácia do Treinamento
16%
Desenvolvimento do Jogador
20%
Prevenção de Lesões
25%
Implementação Tática
30%

Eventos Recentes

Avaliou um jogador agora
Participou de uma reunião de recrutamento agora
Recomendou um alvo de transferência agora
Recomendou um alvo de transferência agora
Participou de uma reunião de recrutamento agora
Votou contra um alvo de transferência agora
Participou de uma reunião de recrutamento agora
Avaliou um jogador agora

Monitorando agora

154
Jogador Clube Status Habilidade Confiança Observado Última observação Último voto
Lamine Diakité Djoliba Ativo 104 / 111 40% 2 02.04.2027 -
Brandon Hanlan Doncaster Rovers Ativo 114 / 83 40% 3 02.04.2027 -
Seidu Basit Ashanti Gold Ativo 97 / 99 40% 2 31.03.2027 -
Matty Stevens AFC Wimbledon Ativo 92 / 91 40% 1 31.03.2027 -
Rhys Browne Barnet Ativo 80 / 97 40% 1 30.03.2027 -
Claudio Morra Vicenza Ativo 106 / 113 40% 1 30.03.2027 -
Marcus Browne AFC Wimbledon Ativo 109 / 116 40% 3 29.03.2027 -
Kwadwo Obeng Junior Heart of Lions Ativo 93 / 96 40% 2 29.03.2027 -
Danylo Honcharuk Probiy Ativo 88 / 84 40% 1 28.03.2027 -
Jacopo Manconi Casertana Ativo 116 / 97 40% 1 28.03.2027 -
Fabrice Olinga Victoria United Ativo 85 / 102 40% 3 25.03.2027 -
Noah Mokhtari Stade Brestois Ativo 85 / 106 40% 1 25.03.2027 -
Dramane Traoré AS Korofina Ativo 99 / 86 40% 5 24.03.2027 -
Evidence Mokoena Platinum Stars Ativo 86 / 79 40% 4 24.03.2027 -
Stanislav Biblyk Chaika Ativo 106 / 77 40% 2 19.03.2027 -
Hakeeb Adelakun Doncaster Rovers Ativo 98 / 88 40% 2 19.03.2027 -
Lewis McCann Fleetwood Town Ativo 95 / 91 40% 2 17.03.2027 -
Migran Ageyan Ufa Ativo 81 / 93 40% 1 17.03.2027 -
Malick Traoré Onze Createurs Rejeitado 101 / 104 40% 6 15.03.2027 Rejeitar
Jules Armand Kooh Dynamo Douala Ativo 93 / 84 40% 3 15.03.2027 -
Zoumana Simpara Djoliba Ativo 109 / 88 40% 3 13.03.2027 -
Sam Nombe Milton Keynes Dons Ativo 113 / 113 40% 1 13.03.2027 -
Junior Kemajou-Dimabi Fauve Azur Elite Ativo 93 / 103 40% 4 10.03.2027 -
David Karaev KAMAZ Ativo 96 / 93 40% 5 10.03.2027 -
Moussakoye Diallo Stade Malien Ativo 108 / 108 40% 8 09.03.2027 -
Thomas Agyepong Berekum Chelsea Ativo 98 / 102 40% 2 07.03.2027 -
Ibrahim Nurudeen Medeama Ativo 93 / 96 40% 3 05.03.2027 -
Ivan Luquetta Neftekhimik Rejeitado 88 / 95 40% 2 03.03.2027 Mais informações
Banfa Diakité Cavese Ativo 99 / 85 40% 2 02.03.2027 -
Domi Berlanga Vicenza Ativo 85 / 103 40% 3 02.03.2027 -
Jacobo Alcalde SKA Khabarovsk Ativo 94 / 75 40% 1 01.03.2027 -
Amur Kalmykov Spartak Kostroma Ativo 102 / 99 40% 3 27.02.2027 -
Alexandr Dolgov Amkar Ativo 95 / 97 40% 5 25.02.2027 -
Andrii Riznyk Ahrobiznes Ativo 98 / 87 40% 1 24.02.2027 -
Anatole Abang USM Alger Ativo 121 / 105 40% 2 23.02.2027 -
Yefrín Castillo Lokomotiv Plovdiv Ativo 83 / 74 40% 1 23.02.2027 -
Rodrigo Trejo Vorskla Ativo 85 / 84 40% 2 20.02.2027 -
Patrick Schmidt Tarxien Rainbows Ativo 98 / 105 40% 1 20.02.2027 -
Fernandinho Sliema Wanderers Ativo 102 / 71 40% 3 14.02.2027 -
Abdoul Salam Dembélé Stade Malien Ativo 106 / 99 40% 6 13.02.2027 -
Osman Partey BA All Stars Ativo 96 / 84 40% 5 13.02.2027 -
Jonathan Okoronkwo Torpedo Moscow Ativo 104 / 108 40% 1 11.02.2027 -
Siaka Diaby Stade Malien Ativo 105 / 88 40% 2 08.02.2027 -
Albek Gongapshev Shinnik Ativo 80 / 81 40% 1 07.02.2027 -
Oto John CR Belouizdad Ativo 119 / 114 40% 1 07.02.2027 -
Solly Khunyedi Bloemfontein Celtic Ativo 113 / 84 40% 2 06.02.2027 -
Samuel Tetteh Wa All Stars Ativo 98 / 108 40% 3 05.02.2027 -
Alex Tanque Valletta Ativo 100 / 74 40% 1 04.02.2027 -
Jean Marie Dongou Unisport Bafang Ativo 100 / 95 40% 3 01.02.2027 -
James Kirby Marsaxlokk Ativo 77 / 86 40% 1 01.02.2027 -
Viktor Hamsik FK Senica Ativo 105 / 85 40% 1 31.01.2027 -
Alexandr Yushin Torpedo Moscow Rejeitado 97 / 101 40% 8 30.01.2027 Rejeitar
Shawn McCoulsky Harrogate Town Ativo 71 / 65 40% 1 29.01.2027 -
Kenan Dervišagić Floriana Ativo 93 / 109 40% 2 28.01.2027 -
Johnson Amuzu Berekum Chelsea Ativo 97 / 96 40% 1 28.01.2027 -
Mason Bennett Harrogate Town Ativo 79 / 80 40% 1 26.01.2027 -
Hlompho Modiba Black Aces Ativo 98 / 106 40% 1 25.01.2027 -
Václav Sejk Sigma Olomouc Ativo 120 / 105 40% 1 25.01.2027 -
Damir Céter Hamrun Spartans Ativo 111 / 101 40% 4 21.01.2027 -
Yvan Mvondo Olama Colombe du Dja et Lobo Ativo 105 / 100 62% 1 18.01.2027 Aprovar
Nko Ghangle Rattensi Victoria United Ativo 71 / 66 62% 1 11.01.2027 Aprovar
Bonginkosi Dlamini Polokwane City Ativo 86 / 87 40% 1 30.12.2026 -
Adama Traoré Colombe du Dja et Lobo Ativo 85 / 85 40% 7 29.12.2026 Rejeitar
Jean Hugues Eyango Colombe du Dja et Lobo Ativo 92 / 82 40% 2 27.12.2026 -
Victor Mbaoma Tusker Ativo 100 / 90 40% 6 26.12.2026 Observar
Alexandr Saplinov Volga Ativo 107 / 92 40% 1 26.12.2026 -
Guillermo Bassi Lokomotiv Plovdiv Ativo 85 / 112 40% 2 22.12.2026 -
Daniil Kondrakov KDV Tomsk Ativo 99 / 76 40% 1 22.12.2026 Mais informações
Kagiso Malinga Bidvest Wits Ativo 89 / 84 40% 4 20.12.2026 -
János Hahn Paksi Ativo 104 / 113 40% 1 19.12.2026 -
Malick Touré KCB Ativo 86 / 79 40% 1 19.12.2026 -
Paublo Jara Chelyabinsk Ativo 98 / 89 40% 1 16.12.2026 -
Giancarlo Mosta Ativo 73 / 73 40% 1 16.12.2026 -
Louis Appéré Cambridge United Ativo 108 / 114 40% 1 15.12.2026 -
Daniil Agureev Amkar Ativo 82 / 79 40% 1 15.12.2026 -
Saliou Guindo ES Mostaganem Ativo 83 / 79 40% 1 14.12.2026 -
Sibusiso Tshabalala Polokwane City Ativo 95 / 79 40% 2 09.12.2026 -
Shunsuke Saito Westerlo Rejeitado 108 / 97 40% 1 08.12.2026 Mais informações
Valdu Té Dobrudzha Ativo 82 / 108 40% 1 08.12.2026 -
Vladislav Yakovlev Volga Ativo 93 / 91 40% 2 05.12.2026 -
Maxim Chikanchi Sibir Ativo 82 / 96 40% 1 30.11.2026 -
Maxim Kutovoy Salyut Ativo 96 / 67 40% 1 30.11.2026 -
Jack Vale Alcione Milano Ativo 82 / 87 40% 1 29.11.2026 -
Antonio Vutov Arda Ativo 109 / 88 40% 2 28.11.2026 -
Fon Boris Kache PWD Bamenda Ativo 90 / 85 40% 1 28.11.2026 -
Elia Petrelli Forli Ativo 109 / 109 40% 1 27.11.2026 -
Sebastian Soto ES Ben Aknoun Ativo 94 / 99 40% 2 26.11.2026 -
Franklin Sasere Birkirkara Ativo 89 / 86 40% 1 25.11.2026 -
Djibril Coulibaly Real Bamako Ativo 104 / 111 40% 2 22.11.2026 -
Matija Malekinušić Novi Pazar Ativo 108 / 105 40% 1 22.11.2026 -
Fabián Ahumada NK Krka Ativo 107 / 107 40% 1 21.11.2026 -
Derrick Otanga Kakamega Homeboyz Ativo 79 / 87 40% 2 19.11.2026 -
Beryly Lubala CSKA 1948 Ativo 92 / 101 40% 3 18.11.2026 -
Ilja Grischenko Kaluga Ativo 99 / 69 40% 1 18.11.2026 -
Tom Žurga NK Krka Ativo 103 / 101 40% 1 17.11.2026 -
Vinicius Baiano Naxxar Lions Ativo 85 / 109 40% 2 15.11.2026 -
Nikolaj Möller Sandefjord Ativo 113 / 104 40% 2 12.11.2026 -
Daniel Braut Tromso Ativo 120 / 104 40% 1 11.11.2026 -
Daniil Konoplev Dinamo Bryansk Ativo 90 / 86 40% 1 10.11.2026 -
Jurica Poldrugač Rudes Ativo 94 / 108 40% 1 08.11.2026 -
Edmond Sindjo Colombe du Dja et Lobo Ativo 97 / 96 40% 1 07.11.2026 -
Jesús Molina Chelyabinsk Ativo 102 / 81 40% 1 07.11.2026 -
Ante Aralica Lokomotiv Sofia Ativo 113 / 116 40% 1 06.11.2026 -
Viktor Ekblom Tromso Ativo 97 / 99 40% 2 28.10.2026 -
Ádám Viczián Bekescsaba Ativo 85 / 97 40% 1 20.10.2026 -
Jacobo Escobar Sokol Ativo 102 / 107 40% 1 18.10.2026 -
Musa Masika Mathare United Ativo 69 / 97 40% 1 17.10.2026 -
Sebastián Romero NK Zavrc Ativo 92 / 100 40% 1 16.10.2026 -
Abdulmajid Aminu Barau Ativo 86 / 96 40% 1 15.10.2026 -
Théo Berdayes Sion Ativo 96 / 126 40% 1 15.10.2026 -
Håkon Lorentzen IK Start Ativo 95 / 100 40% 1 13.10.2026 -
Emmanuel Jonas El-Kanemi Warriors Ativo 75 / 94 40% 1 13.10.2026 -
Abubakar Bonni Enyimba Ativo 90 / 95 40% 2 12.10.2026 -
Somila Ntsundwana Bidvest Wits Ativo 94 / 95 40% 1 12.10.2026 -
Máté Sajbán Diosgyor Ativo 108 / 85 40% 1 11.10.2026 -
Robert Mizo Remo Stars Ativo 96 / 92 40% 1 09.10.2026 -
Peter Thiong'o Kakamega Homeboyz Ativo 75 / 99 40% 1 09.10.2026 -
Adolf Daði Birgisson FH Ativo 108 / 96 40% 1 03.10.2026 -
Chiedozie Okorie Kano Pillars Ativo 92 / 76 40% 1 29.09.2026 -
Lassana N'Diaye Djoliba Ativo 88 / 89 40% 1 28.09.2026 -
Benson Omalla Nairobi United Ativo 99 / 100 40% 1 28.09.2026 -
Okardi Inikurogha Bayelsa United Ativo 83 / 77 40% 1 26.09.2026 -
Magnus Lankhof Dahlby Stabaek Ativo 101 / 108 40% 1 20.09.2026 -
Kristian Eriksen Molde Ativo 118 / 144 40% 1 19.09.2026 -
Justice Figuareido Chippa United Ativo 103 / 67 40% 1 16.09.2026 -
Alain Gueï Zulte Waregem Ativo 85 / 88 40% 1 10.09.2026 -
Danila Shilov Dinamo Stavropol Ativo 103 / 100 40% 1 10.09.2026 -
Joseph Atule Barau Ativo 100 / 107 40% 1 08.09.2026 -
Marcelo Sliema Wanderers Ativo 72 / 97 40% 1 08.09.2026 -
Oke Kayode Bendel Insurance Ativo 97 / 85 40% 1 03.09.2026 -
Patrick Perrin Chamois Niortais Ativo 76 / 99 40% 2 02.09.2026 -
Chukwuemeka Obioma Abia Warriors Ativo 103 / 85 40% 1 02.09.2026 -
Tony Mendy AJ Auxerre Ativo 86 / 93 40% 1 01.09.2026 -
Yegor Kortsov Dinamo Brest Ativo 123 / 99 40% 1 30.08.2026 -
Umar Ada Nasarawa United Ativo 86 / 87 40% 1 30.08.2026 -
Atanas Iliev CSKA 1948 Ativo 102 / 124 40% 1 27.08.2026 -
Samson Olasupo Remo Stars Ativo 100 / 106 40% 1 26.08.2026 -
Jesper Cornelius IK Start Ativo 91 / 121 40% 1 24.08.2026 -
Jaime Moreno KuPS Ativo 118 / 117 40% 1 23.08.2026 -
Jere Vrcić Birkirkara Ativo 74 / 107 40% 1 19.08.2026 -
Bruno Gomes Valletta Ativo 102 / 79 40% 1 19.08.2026 -
Junior Rostand M'baï Unisport Bafang Ativo 94 / 81 40% 1 16.08.2026 -
Aboubacar Diarra ES Mostaganem Ativo 80 / 102 40% 2 14.08.2026 -
Alberto Benítez Villalba FCI Tallinn Ativo 109 / 109 40% 1 12.08.2026 -
Cristhian Medina Smorgon Ativo 86 / 95 40% 1 11.08.2026 -
Gustavo Mosquera Botev Vratsa Ativo 87 / 108 40% 1 07.08.2026 -
Errol Mundle-Smith Norwich City Ativo 89 / 104 40% 1 07.08.2026 -
Mattheo Guendez AS Nancy Ativo 93 / 99 40% 1 06.08.2026 -
Boniface Omondi Kakamega Homeboyz Ativo 102 / 78 40% 1 05.08.2026 -
Ali Reghba NK Maribor Ativo 116 / 123 40% 1 04.08.2026 -
Moussa Ballo Afrique Foot Elite Ativo 98 / 94 40% 1 03.08.2026 -
Idrissa Diarra Stade Malien Ativo 85 / 85 40% 1 03.08.2026 -
Jonathan Mexique Sochaux Ativo 95 / 87 40% 1 01.08.2026 -
Kyle Jurgens Maritzburg United Ativo 95 / 113 40% 1 01.08.2026 -